Location: Detroit
(42.3310°N, 83.0460°W)
Time: 10:26:07
(UTC-05:00)

Hubble Space Telescope - Visible Passes

Search period start: 03 December 2022 00:00
Search period end: 13 December 2022 00:00
Orbit: 530 x 534 km, 28.5° (Epoch: 02 December)

Date Brightness Start Highest point End Pass type
(mag) Time Alt. Az. Time Alt. Az. Time Alt. Az.
09 Dec 3.5 06:15:53 10° S 06:16:39 10° S 06:17:24 10° SSE visible
10 Dec 3.4 06:02:42 10° SSW 06:03:51 11° S 06:05:00 10° SSE visible
11 Dec 3.3 05:49:43 10° SSW 05:51:04 11° S 05:52:24 10° SSE visible
12 Dec 3.3 05:37:44 11° S 05:38:16 12° S 05:39:41 10° SSE visible
